KB1JDX Weather Reports


time (UTC)temp
C
wind
direction
speed
KPH
gust
KPH
rain 1hr
cm
rain 24hr
cm
rain mn
cm
humidity
%
barometer
mb
20260905153206 23 294 0.0 11.3 0.00 0.00 0.00 33 1009.2
20260905153103 23 294 0.0 11.3 0.00 0.00 0.00 33 1009.2
20260905151206 23 54 0.0 11.3 0.00 0.00 0.00 31 1009.1
20260905145206 23 346 0.0 11.3 0.00 0.00 0.00 26 1009.0
20260905143206 22 289 1.6 11.3 0.00 0.00 0.00 15 1009.1
20260905143103 22 285 0.0 11.3 0.00 0.00 0.00 13 1009.1
20260905141206 21 290 0.0 11.3 0.00 0.00 0.00 6 1009.4
20260905135206 21 307 0.0 0.0 0.00 0.00 0.00 100 1009.5
20260905133206 20 293 0.0 0.0 0.00 0.00 0.00 100 1009.6
20260905133103 20 294 6.4 0.0 0.00 0.00 0.00 100 1009.6
20260905131206 18 315 0.0 0.0 0.00 0.00 0.00 100 1009.4
20260905125206 17 47 0.0 0.0 0.00 0.00 0.00 100 1009.8
20260905123207 17 47 0.0 0.0 0.00 0.00 0.00 100 1009.8
20260905123103 16 47 0.0 0.0 0.00 0.00 0.00 100 1009.8
20260905121206 16 47 0.0 0.0 0.00 0.00 0.00 100 1009.5
20260905115206 15 47 0.0 0.0 0.00 0.00 0.00 100 1009.3
20260905113207 15 47 0.0 0.0 0.00 0.00 0.00 100 1009.2
20260905113103 15 47 0.0 0.0 0.00 0.00 0.00 100 1009.2
20260905111210 14 47 0.0 0.0 0.00 0.00 0.00 100 1009.0
20260905105206 14 47 0.0 0.0 0.00 0.00 0.00 100 1008.7
20260905103206 14 47 0.0 0.0 0.00 0.00 0.00 100 1008.7
20260905103103 14 47 0.0 0.0 0.00 0.00 0.00 100 1008.7
20260905101212 14 47 0.0 0.0 0.00 0.00 0.00 100 1008.7
20260905095206 14 47 0.0 0.0 0.00 0.00 0.00 100 1008.6
20260905093206 15 47 0.0 0.0 0.00 0.00 0.00 100 1008.7
20260905093103 15 47 0.0 0.0 0.00 0.00 0.00 100 1008.7
20260905091206 15 47 0.0 0.0 0.00 0.00 0.00 100 1008.6
20260905085206 15 47 0.0 0.0 0.00 0.00 0.00 100 1008.5
20260905083208 15 47 0.0 0.0 0.00 0.00 0.00 100 1008.4
20260905083103 15 47 0.0 0.0 0.00 0.00 0.00 100 1008.5
20260905073207 15 47 0.0 0.0 0.00 0.00 0.00 100 1008.6
20260905073103 15 47 0.0 0.0 0.00 0.00 0.00 100 1008.6
20260905071206 15 47 0.0 0.0 0.00 0.00 0.00 100 1008.6
20260905065206 16 47 0.0 0.0 0.00 0.00 0.00 100 1008.7
20260905063207 16 47 0.0 0.0 0.00 0.00 0.00 100 1008.9
20260905063103 16 47 0.0 0.0 0.00 0.00 0.00 100 1008.9
20260905061206 16 47 0.0 0.0 0.00 0.00 0.00 100 1009.2
20260905055206 16 47 0.0 0.0 0.00 0.00 0.00 100 1009.3
20260905053103 16 47 0.0 0.0 0.00 0.00 0.00 100 1009.4
20260905051207 16 47 0.0 0.0 0.00 0.00 0.00 100 1009.5
20260905045206 17 47 0.0 0.0 0.00 0.00 0.00 100 1009.4
20260905043207 17 47 0.0 0.0 0.00 0.00 0.00 100 1009.5
20260905043103 17 47 0.0 0.0 0.00 0.00 0.00 100 1009.5
20260905041206 17 47 0.0 0.0 0.00 0.00 0.00 100 1009.5
20260905035206 17 47 0.0 0.0 0.00 0.00 0.00 100 1009.5
20260905033103 17 47 0.0 0.0 0.00 0.00 0.00 100 1009.4
20260905031206 17 47 0.0 0.0 0.00 0.00 0.00 100 1009.2
20260905025206 18 47 0.0 0.0 0.00 0.00 0.00 100 1009.2
20260905023103 18 47 0.0 0.0 0.00 0.00 0.00 100 1009.2
20260905021206 18 47 0.0 0.0 0.00 0.00 0.00 100 1009.1
20260905015206 18 47 0.0 0.0 0.00 0.00 0.00 100 1009.4
20260905013206 18 47 0.0 0.0 0.00 0.00 0.00 100 1009.5
20260905013103 19 47 0.0 0.0 0.00 0.00 0.00 100 1009.5
20260905011206 19 47 0.0 0.0 0.00 0.00 0.00 100 1009.5
20260905005206 20 47 0.0 0.0 0.00 0.00 0.00 100 1009.5
20260905003206 20 47 0.0 0.0 0.00 0.00 0.00 100 1009.4
20260905003103 20 47 0.0 0.0 0.00 0.00 0.00 100 1009.4
20260905001206 20 46 0.0 0.0 0.00 0.00 0.00 100 1009.2
20260904235206 21 47 0.0 0.0 0.00 0.00 0.00 4 1009.1
20260904233206 22 47 0.0 0.0 0.00 0.00 0.00 38 1008.9
20260904233103 22 47 0.0 0.0 0.00 0.00 0.00 39 1008.9
20260904231206 23 47 0.0 0.0 0.00 0.00 0.00 46 1009.0
20260904225206 23 47 0.0 0.0 0.00 0.00 0.00 53 1008.8
20260904223209 25 47 0.0 0.0 0.00 0.00 0.00 54 1008.7
20260904223103 25 47 0.0 0.0 0.00 0.00 0.00 54 1008.7
20260904221206 25 47 0.0 0.0 0.00 0.00 0.00 54 1008.5
20260904215206 26 47 0.0 9.7 0.00 0.00 0.00 54 1008.4
20260904213206 27 47 0.0 9.7 0.00 0.00 0.00 54 1008.5
20260904213103 27 47 0.0 9.7 0.00 0.00 0.00 54 1008.5
20260904211206 27 47 0.0 9.7 0.00 0.00 0.00 51 1008.6
20260904205205 28 321 0.0 0.0 0.00 0.00 0.00 50 1008.4
20260904203207 28 321 0.0 0.0 0.00 0.00 0.00 48 1008.4
20260904203103 28 321 6.4 0.0 0.00 0.00 0.00 50 1008.4
20260904201206 29 39 0.0 14.5 0.00 0.00 0.00 49 1008.5
20260904195207 29 39 0.0 14.5 0.00 0.00 0.00 49 1008.5
20260904193207 29 302 0.0 14.5 0.00 0.00 0.00 47 1008.6
20260904193103 29 51 0.0 14.5 0.00 0.00 0.00 47 1008.5
20260904185206 27 294 0.0 12.9 0.00 0.00 0.00 50 1008.7
20260904183206 27 45 0.0 12.9 0.00 0.00 0.00 49 1008.9
20260904183103 27 45 0.0 12.9 0.00 0.00 0.00 49 1008.8
20260904181206 28 34 0.0 12.9 0.00 0.00 0.00 47 1008.8
20260904175206 28 303 0.0 11.3 0.00 0.00 0.00 48 1008.6
20260904173206 27 276 0.0 11.3 0.00 0.00 0.00 47 1008.9
20260904173103 27 277 0.0 11.3 0.00 0.00 0.00 47 1009.0
20260904171206 27 16 0.0 11.3 0.00 0.00 0.00 46 1009.0
20260904165206 27 52 0.0 14.5 0.00 0.00 0.00 45 1009.2
20260904163207 27 285 0.0 14.5 0.00 0.00 0.00 44 1009.3
20260904163103 27 285 0.0 14.5 0.00 0.00 0.00 44 1009.3
20260904161206 27 324 0.0 14.5 0.00 0.00 0.00 43 1009.4
20260904155207 27 348 0.0 11.3 0.00 0.00 0.00 41 1009.4